Location: Newark
(7.0858°N, 171.3717°E)
Time: 09:25:55
(UTC+00:00)

S-56A Canister/Altair - Pass Details

Date: 02 December 2020
Orbit: 633 x 2499 km, 38.9° (Epoch: 27 January)

Event Time Altitude Azimuth Distance (km) Brightness Sun altitude
Rises 01:25:49 0° 201° (SSW) 5,610 12.4 57.2°
Reaches altitude 10° 01:30:22 10° 188° (S) 4,834 12.3 56.7°
Maximum altitude 01:41:12 26° 138° (SE) 3,984 11.6 55.3°
Drops below altitude 10° 01:52:25 10° 89° (E) 5,081 11.6 53.7°
Sets 01:57:15 0° 77° (ENE) 5,951 11.8 53.0°
